Regional Weather Roundup
Issued by NWS

Home | Current Version | Previous Version | Graphics & Text | Print | Product List | Glossary On
Versions: 1 2 3 4 5 6 7 8 9 10 11 12 13 14 15 16 17 18 19 20 21 22 23 24 25 26 27 28 29 30 31 32 33 34 35 36 37 38 39 40 41 42 43 44 45 46 47 48 49 50
000
ASUS43 KFSD 180802
RWRSD

WEATHER ROUNDUP FOR SOUTH DAKOTA
NATIONAL WEATHER SERVICE SIOUX FALLS SD
200 AM CST SUN FEB 18 2018

NOTE: "FAIR" INDICATES FEW OR NO CLOUDS BELOW 12,000 FEET WITH NO
SIGNIFICANT WEATHER AND/OR OBSTRUCTIONS TO VISIBILITY.


SDZ001>005-009-010-012>017-180900-
NORTHWEST AND NORTH CENTRAL SOUTH DAKOTA

CITY           SKY/WX    TMP DP  RH WIND       PRES   REMARKS
BUFFALO          N/A     16   9  74 E8        29.45F WCI   5
FAITH            N/A     20  18  92 E17       29.52F WCI   5
MOBRIDGE       CLOUDY    21  16  81 E22       29.64F WCI   5
$$

SDZ012>016-024>037-041>051-057-063-072>074-180900-
SOUTHWEST AND SOUTH CENTRAL SOUTH DAKOTA

CITY           SKY/WX    TMP DP  RH WIND       PRES   REMARKS
RAPID CTY ARPT CLOUDY    23  21  92 SE6       29.45F WCI  16
PIERRE         CLOUDY    26  23  88 SE20      29.60F WCI  12
CUSTER         CLOUDY    32  14  47 W5        29.46F WCI  27
ELLSWORTH AFB  CLOUDY    25  24  95 SE7       29.43F WCI  17
PHILIP         CLOUDY    32  26  78 E9        29.49F WCI  24
PINE RIDGE     CLOUDY    39  24  55 S22G29    29.50F
SPEARFISH        N/A     19  18  93 W8        29.44S WCI   9
WINNER         FAIR      35  24  64 S25G36    29.61F WCI  23
$$

SDZ004>011-016>023-039-040-180900-
NORTHEAST SOUTH DAKOTA

CITY           SKY/WX    TMP DP  RH WIND       PRES   REMARKS
ABERDEEN       FLURRIES  22  18  85 E12       29.83F WCI  10
WATERTOWN      CLOUDY    22  19  89 SE8       29.86F WCI  12
BROOKINGS      CLOUDY    23  20  88 SE14      29.88F WCI  11
SISSETON         N/A     19  11  70 E6        29.93F WCI  11
$$

SDZ017-020-022-023-036>040-048>070-180900-
SOUTHEAST SOUTH DAKOTA

CITY           SKY/WX    TMP DP  RH WIND       PRES   REMARKS
SIOUX FALLS    PTCLDY    23  20  88 SE10      29.91F WCI  12
HURON          CLOUDY    25  21  85 SE15      29.79F WCI  13
CHAMBERLAIN    PTCLDY    31  28  88 E20G28    29.68F WCI  18
MITCHELL       MOCLDY    28  24  85 SE18      29.82F WCI  15
YANKTON        PTCLDY    27  25  92 SE16      29.88F WCI  15
$$

ABBREVIATIONS USED IN REMARKS
   TC - TEMPERATURE IN CELSIUS
  WCI - WIND CHILL INDEX
   HX - HEAT INDEX
  VSB - VISIBILITY




USA.gov is the U.S. government's official web portal to all federal, state and local government web resources and services.